| time (UTC) | temp F | wind direction | speed MPH | gust MPH | rain 1hr in | rain 24hr in | rain mn in | humidity % | barometer mb |
| 20260509101003 | 61 | 266 | 4.0 | 11.0 | 0.00 | 0.00 | 0.00 | 46 | 1021.5 |
| 20260509100005 | 59 | 298 | 4.0 | 11.0 | 0.00 | 0.00 | 0.00 | 50 | 1021.7 |
| 20260509095003 | 60 | 301 | 4.0 | 9.0 | 0.00 | 0.00 | 0.00 | 51 | 1021.8 |
| 20260509094003 | 59 | 272 | 4.0 | 11.0 | 0.00 | 0.00 | 0.00 | 53 | 1022.0 |
| 20260509093003 | 59 | 266 | 3.0 | 11.0 | 0.00 | 0.00 | 0.00 | 52 | 1022.0 |
| 20260509092003 | 59 | 306 | 3.0 | 8.0 | 0.00 | 0.00 | 0.00 | 52 | 1022.0 |
| 20260509091003 | 59 | 264 | 3.0 | 11.0 | 0.00 | 0.00 | 0.00 | 51 | 1022.2 |
| 20260509090003 | 58 | 271 | 4.0 | 11.0 | 0.00 | 0.00 | 0.00 | 51 | 1022.1 |
| 20260509085003 | 58 | 263 | 4.0 | 11.0 | 0.00 | 0.00 | 0.00 | 50 | 1022.5 |
| 20260509084003 | 57 | 248 | 5.0 | 9.0 | 0.00 | 0.00 | 0.00 | 54 | 1022.3 |
| 20260509083004 | 57 | 245 | 3.0 | 7.0 | 0.00 | 0.00 | 0.00 | 56 | 1022.5 |
| 20260509082003 | 57 | 255 | 1.0 | 7.0 | 0.00 | 0.00 | 0.00 | 58 | 1022.6 |
| 20260509081004 | 56 | 237 | 2.0 | 7.0 | 0.00 | 0.00 | 0.00 | 59 | 1022.5 |
| 20260509080004 | 56 | 248 | 2.0 | 7.0 | 0.00 | 0.00 | 0.00 | 60 | 1022.5 |
| 20260509075003 | 56 | 226 | 3.0 | 4.0 | 0.00 | 0.00 | 0.00 | 59 | 1022.6 |
| 20260509074004 | 57 | 271 | 2.0 | 8.0 | 0.00 | 0.00 | 0.00 | 57 | 1022.6 |
| 20260509073003 | 57 | 271 | 2.0 | 8.0 | 0.00 | 0.00 | 0.00 | 54 | 1022.6 |
| 20260509072003 | 56 | 307 | 2.0 | 4.0 | 0.00 | 0.00 | 0.00 | 57 | 1022.6 |
| 20260509071003 | 55 | 236 | 1.0 | 6.0 | 0.00 | 0.00 | 0.00 | 63 | 1022.7 |
| 20260509070003 | 54 | 233 | 2.0 | 4.0 | 0.00 | 0.00 | 0.00 | 63 | 1022.8 |
| 20260509065003 | 53 | 234 | 1.0 | 4.0 | 0.00 | 0.00 | 0.00 | 67 | 1022.7 |
| 20260509063004 | 51 | 220 | 2.0 | 4.0 | 0.00 | 0.00 | 0.00 | 68 | 1023.1 |
| 20260509062003 | 50 | 231 | 2.0 | 6.0 | 0.00 | 0.00 | 0.00 | 69 | 1023.0 |
| 20260509061003 | 49 | 239 | 2.0 | 4.0 | 0.00 | 0.00 | 0.00 | 70 | 1023.0 |
| 20260509060004 | 48 | 244 | 1.0 | 4.0 | 0.00 | 0.00 | 0.00 | 73 | 1023.1 |
| 20260509055003 | 48 | 238 | 2.0 | 4.0 | 0.00 | 0.00 | 0.00 | 72 | 1023.1 |
| 20260509054003 | 47 | 232 | 1.0 | 4.0 | 0.00 | 0.00 | 0.00 | 74 | 1022.9 |
| 20260509053003 | 47 | 223 | 2.0 | 6.0 | 0.00 | 0.00 | 0.00 | 74 | 1023.1 |
| 20260509052003 | 46 | 227 | 3.0 | 6.0 | 0.00 | 0.00 | 0.00 | 75 | 1023.1 |
| 20260509051003 | 46 | 230 | 2.0 | 4.0 | 0.00 | 0.00 | 0.00 | 76 | 1023.2 |
| 20260509050003 | 46 | 234 | 2.0 | 4.0 | 0.00 | 0.00 | 0.00 | 77 | 1023.1 |
| 20260509045003 | 45 | 0 | 0.0 | 2.0 | 0.00 | 0.00 | 0.00 | 78 | 1023.2 |
| 20260509044003 | 44 | 0 | 0.0 | 2.0 | 0.00 | 0.00 | 0.00 | 80 | 1023.2 |
| 20260509043003 | 43 | 0 | 0.0 | 2.0 | 0.00 | 0.00 | 0.00 | 81 | 1022.9 |
| 20260509042004 | 42 | 0 | 0.0 | 0.0 | 0.00 | 0.00 | 0.00 | 80 | 1023.2 |
| 20260509041003 | 41 | 0 | 0.0 | 0.0 | 0.00 | 0.00 | 0.00 | 81 | 1023.5 |
| 20260509040004 | 41 | 0 | 0.0 | 0.0 | 0.00 | 0.00 | 0.00 | 81 | 1023.2 |
| 20260509035003 | 42 | 0 | 0.0 | 0.0 | 0.00 | 0.00 | 0.00 | 80 | 1023.3 |
| 20260509034003 | 41 | 0 | 0.0 | 0.0 | 0.00 | 0.00 | 0.00 | 82 | 1023.6 |
| 20260509033003 | 41 | 0 | 0.0 | 0.0 | 0.00 | 0.00 | 0.00 | 82 | 1023.2 |
| 20260509032003 | 39 | 0 | 0.0 | 0.0 | 0.00 | 0.00 | 0.00 | 85 | 1023.2 |
| 20260509031003 | 38 | 0 | 0.0 | 0.0 | 0.00 | 0.00 | 0.00 | 86 | 1023.4 |
| 20260509030004 | 39 | 0 | 0.0 | 0.0 | 0.00 | 0.00 | 0.00 | 88 | 1023.4 |
| 20260509025003 | 39 | 0 | 0.0 | 0.0 | 0.00 | 0.00 | 0.00 | 87 | 1023.4 |
| 20260509024003 | 39 | 0 | 0.0 | 0.0 | 0.00 | 0.00 | 0.00 | 88 | 1023.7 |
| 20260509023003 | 38 | 0 | 0.0 | 0.0 | 0.00 | 0.00 | 0.00 | 87 | 1023.8 |
| 20260509022003 | 40 | 0 | 0.0 | 0.0 | 0.00 | 0.00 | 0.00 | 87 | 1023.7 |
| 20260509021003 | 40 | 0 | 0.0 | 2.0 | 0.00 | 0.00 | 0.00 | 85 | 1023.7 |
| 20260509020003 | 41 | 292 | 1.0 | 2.0 | 0.00 | 0.00 | 0.00 | 84 | 1023.5 |
| 20260509015003 | 40 | 0 | 0.0 | 0.0 | 0.00 | 0.00 | 0.00 | 84 | 1023.5 |
| 20260509014003 | 40 | 0 | 0.0 | 0.0 | 0.00 | 0.00 | 0.00 | 84 | 1023.7 |
| 20260509013003 | 41 | 0 | 0.0 | 2.0 | 0.00 | 0.00 | 0.00 | 83 | 1023.7 |
| 20260509012003 | 40 | 0 | 0.0 | 0.0 | 0.00 | 0.00 | 0.00 | 83 | 1023.7 |
| 20260509011003 | 40 | 0 | 0.0 | 0.0 | 0.00 | 0.00 | 0.00 | 83 | 1023.5 |
| 20260509010003 | 40 | 0 | 0.0 | 0.0 | 0.00 | 0.00 | 0.00 | 82 | 1023.2 |
| 20260509005003 | 41 | 0 | 0.0 | 0.0 | 0.00 | 0.00 | 0.00 | 79 | 1023.5 |
| 20260509004003 | 41 | 0 | 0.0 | 0.0 | 0.00 | 0.00 | 0.00 | 82 | 1023.6 |
| 20260509003003 | 40 | 0 | 0.0 | 0.0 | 0.00 | 0.00 | 0.00 | 83 | 1023.6 |
| 20260509002003 | 40 | 0 | 0.0 | 0.0 | 0.00 | 0.00 | 0.00 | 83 | 1023.6 |
| 20260509001003 | 41 | 0 | 0.0 | 0.0 | 0.00 | 0.00 | 0.00 | 82 | 1023.4 |
| 20260509000004 | 41 | 0 | 0.0 | 0.0 | 0.00 | 0.00 | 0.00 | 80 | 1023.6 |
| 20260508235003 | 42 | 0 | 0.0 | 0.0 | 0.00 | 0.00 | 0.00 | 79 | 1023.5 |
| 20260508234003 | 41 | 0 | 0.0 | 0.0 | 0.00 | 0.00 | 0.00 | 81 | 1023.7 |
| 20260508233003 | 40 | 0 | 0.0 | 0.0 | 0.00 | 0.00 | 0.00 | 81 | 1023.4 |
| 20260508232003 | 41 | 0 | 0.0 | 0.0 | 0.00 | 0.00 | 0.00 | 80 | 1023.5 |
| 20260508231003 | 42 | 0 | 0.0 | 0.0 | 0.00 | 0.00 | 0.00 | 78 | 1023.3 |
| 20260508230003 | 42 | 0 | 0.0 | 0.0 | 0.00 | 0.00 | 0.00 | 78 | 1023.6 |
| 20260508225003 | 42 | 0 | 0.0 | 0.0 | 0.00 | 0.00 | 0.00 | 77 | 1023.5 |
| 20260508224003 | 43 | 0 | 0.0 | 0.0 | 0.00 | 0.00 | 0.00 | 76 | 1023.6 |
| 20260508223003 | 43 | 0 | 0.0 | 0.0 | 0.00 | 0.00 | 0.00 | 76 | 1023.6 |
| 20260508222003 | 44 | 0 | 0.0 | 2.0 | 0.00 | 0.00 | 0.00 | 74 | 1023.4 |
| 20260508221003 | 45 | 0 | 0.0 | 2.0 | 0.00 | 0.00 | 0.00 | 72 | 1023.7 |
| 20260508220023 | 46 | 0 | 0.0 | 2.0 | 0.00 | 0.00 | 0.00 | 71 | 1023.7 |
| 20260508215003 | 46 | 0 | 0.0 | 2.0 | 0.00 | 0.00 | 0.00 | 70 | 1023.6 |
| 20260508214003 | 45 | 0 | 0.0 | 0.0 | 0.00 | 0.00 | 0.00 | 72 | 1023.7 |
| 20260508213003 | 45 | 0 | 0.0 | 0.0 | 0.00 | 0.00 | 0.00 | 71 | 1023.8 |
| 20260508212003 | 46 | 0 | 0.0 | 0.0 | 0.00 | 0.00 | 0.00 | 69 | 1023.7 |
| 20260508211003 | 47 | 0 | 0.0 | 2.0 | 0.00 | 0.00 | 0.00 | 67 | 1023.6 |
| 20260508210003 | 48 | 227 | 1.0 | 4.0 | 0.00 | 0.00 | 0.00 | 65 | 1023.6 |
| 20260508205003 | 48 | 0 | 0.0 | 2.0 | 0.00 | 0.00 | 0.00 | 64 | 1023.3 |
| 20260508204003 | 49 | 252 | 1.0 | 2.0 | 0.00 | 0.00 | 0.00 | 63 | 1023.5 |
| 20260508203003 | 48 | 0 | 0.0 | 0.0 | 0.00 | 0.00 | 0.00 | 63 | 1023.4 |
| 20260508202003 | 49 | 0 | 0.0 | 0.0 | 0.00 | 0.00 | 0.00 | 62 | 1023.3 |
| 20260508201003 | 50 | 0 | 0.0 | 2.0 | 0.00 | 0.00 | 0.00 | 59 | 1023.2 |
| 20260508200003 | 51 | 3 | 1.0 | 2.0 | 0.00 | 0.00 | 0.00 | 58 | 1023.1 |
| 20260508195003 | 51 | 0 | 0.0 | 2.0 | 0.00 | 0.00 | 0.00 | 59 | 1023.4 |
| 20260508194003 | 51 | 0 | 0.0 | 4.0 | 0.00 | 0.00 | 0.00 | 57 | 1023.0 |
| 20260508193003 | 51 | 0 | 0.0 | 2.0 | 0.00 | 0.00 | 0.00 | 57 | 1023.2 |
| 20260508192003 | 52 | 0 | 0.0 | 2.0 | 0.00 | 0.00 | 0.00 | 56 | 1023.0 |
| 20260508191003 | 53 | 0 | 0.0 | 2.0 | 0.00 | 0.00 | 0.00 | 54 | 1022.8 |
| 20260508190003 | 53 | 0 | 0.0 | 2.0 | 0.00 | 0.00 | 0.00 | 52 | 1022.9 |
| 20260508185003 | 54 | 271 | 1.0 | 4.0 | 0.00 | 0.00 | 0.00 | 51 | 1022.7 |
| 20260508184003 | 55 | 289 | 2.0 | 4.0 | 0.00 | 0.00 | 0.00 | 50 | 1022.9 |
| 20260508183003 | 55 | 268 | 2.0 | 7.0 | 0.00 | 0.00 | 0.00 | 49 | 1022.8 |
| 20260508182003 | 56 | 288 | 2.0 | 7.0 | 0.00 | 0.00 | 0.00 | 49 | 1022.8 |
| 20260508181003 | 56 | 270 | 4.0 | 8.0 | 0.00 | 0.00 | 0.00 | 48 | 1022.8 |
| 20260508180004 | 56 | 276 | 2.0 | 7.0 | 0.00 | 0.00 | 0.00 | 47 | 1022.5 |
| 20260508175003 | 56 | 271 | 2.0 | 7.0 | 0.00 | 0.00 | 0.00 | 46 | 1022.6 |
| 20260508174003 | 57 | 289 | 2.0 | 7.0 | 0.00 | 0.00 | 0.00 | 45 | 1022.5 |
| 20260508173003 | 57 | 275 | 4.0 | 8.0 | 0.00 | 0.00 | 0.00 | 43 | 1022.5 |
| 20260508172003 | 57 | 283 | 2.0 | 9.0 | 0.00 | 0.00 | 0.00 | 43 | 1022.2 |
| 20260508171003 | 58 | 297 | 4.0 | 8.0 | 0.00 | 0.00 | 0.00 | 43 | 1022.3 |
| 20260508170003 | 58 | 280 | 2.0 | 8.0 | 0.00 | 0.00 | 0.00 | 43 | 1022.2 |
| 20260508165004 | 58 | 317 | 3.0 | 11.0 | 0.00 | 0.00 | 0.00 | 42 | 1022.4 |
| 20260508164003 | 59 | 311 | 2.0 | 11.0 | 0.00 | 0.00 | 0.00 | 44 | 1022.5 |
| 20260508163003 | 58 | 311 | 4.0 | 11.0 | 0.00 | 0.00 | 0.00 | 43 | 1022.3 |
| 20260508162003 | 59 | 334 | 5.0 | 11.0 | 0.00 | 0.00 | 0.00 | 41 | 1022.5 |
| 20260508161003 | 59 | 305 | 4.0 | 11.0 | 0.00 | 0.00 | 0.00 | 42 | 1022.3 |
| 20260508160003 | 60 | 304 | 2.0 | 13.0 | 0.00 | 0.00 | 0.00 | 41 | 1022.5 |
| 20260508155003 | 59 | 273 | 4.0 | 11.0 | 0.00 | 0.00 | 0.00 | 41 | 1022.2 |
| 20260508154003 | 61 | 294 | 3.0 | 11.0 | 0.00 | 0.00 | 0.00 | 41 | 1022.6 |
| 20260508153003 | 60 | 351 | 4.0 | 11.0 | 0.00 | 0.00 | 0.00 | 40 | 1022.5 |
| 20260508152003 | 60 | 275 | 4.0 | 11.0 | 0.00 | 0.00 | 0.00 | 40 | 1022.2 |
| 20260508151003 | 60 | 284 | 4.0 | 13.0 | 0.00 | 0.00 | 0.00 | 40 | 1022.7 |
| 20260508150004 | 60 | 289 | 4.0 | 13.0 | 0.00 | 0.00 | 0.00 | 40 | 1022.9 |
| 20260508145003 | 60 | 286 | 6.0 | 11.0 | 0.00 | 0.00 | 0.00 | 40 | 1022.4 |
| 20260508143003 | 59 | 290 | 4.0 | 11.0 | 0.00 | 0.00 | 0.00 | 40 | 1022.6 |
| 20260508142003 | 60 | 308 | 3.0 | 13.0 | 0.00 | 0.00 | 0.00 | 40 | 1022.6 |
| 20260508141003 | 60 | 317 | 4.0 | 9.0 | 0.00 | 0.00 | 0.00 | 40 | 1022.4 |
| 20260508140004 | 60 | 297 | 5.0 | 13.0 | 0.00 | 0.00 | 0.00 | 39 | 1022.6 |
| 20260508135003 | 61 | 300 | 4.0 | 13.0 | 0.00 | 0.00 | 0.00 | 40 | 1022.7 |
| 20260508134003 | 61 | 304 | 3.0 | 16.0 | 0.00 | 0.00 | 0.00 | 39 | 1022.6 |
| 20260508133003 | 60 | 290 | 5.0 | 13.0 | 0.00 | 0.00 | 0.00 | 38 | 1022.8 |
| 20260508132003 | 62 | 306 | 4.0 | 13.0 | 0.00 | 0.00 | 0.00 | 38 | 1022.8 |
| 20260508131003 | 62 | 328 | 2.0 | 13.0 | 0.00 | 0.00 | 0.00 | 39 | 1022.7 |
| 20260508130003 | 60 | 275 | 4.0 | 11.0 | 0.00 | 0.00 | 0.00 | 40 | 1022.8 |
| 20260508125003 | 60 | 283 | 4.0 | 14.0 | 0.00 | 0.00 | 0.00 | 41 | 1022.8 |
| 20260508124003 | 60 | 303 | 4.0 | 11.0 | 0.00 | 0.00 | 0.00 | 40 | 1022.8 |
| 20260508123003 | 59 | 267 | 3.0 | 13.0 | 0.00 | 0.00 | 0.00 | 42 | 1023.0 |
| 20260508122003 | 60 | 318 | 4.0 | 11.0 | 0.00 | 0.00 | 0.00 | 42 | 1022.7 |
| 20260508121003 | 59 | 6 | 3.0 | 14.0 | 0.00 | 0.00 | 0.00 | 42 | 1022.6 |
| 20260508120003 | 59 | 304 | 4.0 | 11.0 | 0.00 | 0.00 | 0.00 | 42 | 1022.7 |
| 20260508115003 | 59 | 359 | 4.0 | 11.0 | 0.00 | 0.00 | 0.00 | 44 | 1022.8 |
| 20260508114003 | 58 | 290 | 3.0 | 9.0 | 0.00 | 0.00 | 0.00 | 44 | 1022.7 |
| 20260508113004 | 58 | 340 | 4.0 | 11.0 | 0.00 | 0.00 | 0.00 | 43 | 1022.7 |
| 20260508112003 | 59 | 273 | 5.0 | 13.0 | 0.00 | 0.00 | 0.00 | 43 | 1022.8 |
| 20260508111003 | 60 | 274 | 2.0 | 11.0 | 0.00 | 0.00 | 0.00 | 44 | 1022.9 |
| 20260508110003 | 60 | 327 | 2.0 | 11.0 | 0.00 | 0.00 | 0.00 | 44 | 1022.8 |
| 20260508105003 | 58 | 289 | 4.0 | 11.0 | 0.00 | 0.00 | 0.00 | 43 | 1022.6 |
| 20260508104003 | 60 | 299 | 1.0 | 8.0 | 0.00 | 0.00 | 0.00 | 45 | 1022.8 |
| 20260508103003 | 59 | 297 | 4.0 | 14.0 | 0.00 | 0.00 | 0.00 | 44 | 1023.0 |
| 20260508102003 | 59 | 275 | 4.0 | 11.0 | 0.00 | 0.00 | 0.00 | 45 | 1023.1 |